Regional Weather Roundup
Issued by NWS

Home | Current Version | Previous Version | Graphics & Text | Print | Product List | Glossary On
Versions: 1 2 3 4 5 6 7 8 9 10 11 12 13 14 15 16 17 18 19 20 21 22 23 24 25 26 27 28 29 30 31 32 33 34 35 36 37 38 39 40 41 42 43 44 45 46 47 48 49 50
000
ASUS43 KOAX 190710
RWRNE

WEATHER ROUNDUP FOR NEBRASKA
NATIONAL WEATHER SERVICE OMAHA NE
200 AM CDT THU APR 19 2018

NOTES: SATELLITE DATA IS BEING USED TO AUGMENT CLOUD COVER ABOVE
       12000 FEET.
       "FAIR" INDICATES FEW OR NO CLOUDS BELOW 12,000 FEET WITH NO
       SIGNIFICANT WEATHER AND/OR OBSTRUCTIONS TO VISIBILITY.


NEZ001>004-019>022-054>056-190800-
NEBRASKA PANHANDLE

CITY           SKY/WX    TMP DP  RH WIND       PRES   REMARKS
SCOTTSBLUFF    CLEAR     32  25  75 E9        30.29S WCI  24
ALLIANCE       PTCLDY    30  27  88 E5        30.30R WCI  25
CHADRON        PTCLDY    31  28  89 W3        30.28S
GORDON         FAIR      27  26  95 CALM      30.29F
KIMBALL        CLEAR     28  20  72 CALM      30.29R
SIDNEY         CLEAR     28  23  81 SE6       30.30R WCI  22
$$

NEZ057>060-069>072-079>082-190800-
SOUTHWEST NEBRASKA

CITY           SKY/WX    TMP DP  RH WIND       PRES   REMARKS
NORTH PLATTE   CLEAR     30  26  85 CALM      30.32S
IMPERIAL       CLEAR     34  29  82 SE3       30.32R
LEXINGTON      CLEAR     29  26  88 NW6       30.33S WCI  23
MCCOOK         CLEAR     30  26  85 N5        30.32R WCI  25
OGALLALA       CLEAR     30  28  94 N3        30.31F
$$

NEZ005>010-023>029-035>040-094-190800-
NORTH CENTRAL NEBRASKA

CITY           SKY/WX    TMP DP  RH WIND       PRES   REMARKS
VALENTINE      CLEAR     30  27  88 SW3       30.33R
AINSWORTH      CLEAR     30  30  99 W5        30.32R WCI  25
BROKEN BOW     CLEAR     29  25  85 N3        30.32R
O`NEILL        CLEAR     32  31  96 NW7       30.32R WCI  26
ORD            CLEAR     32  30  92 NW8       30.31R WCI  25
THEDFORD       CLEAR     30  29  96 W6        30.34R WCI  24
$$

NEZ041-046>049-061>064-073>077-083>087-190800-
SOUTH CENTRAL NEBRASKA

CITY           SKY/WX    TMP DP  RH WIND       PRES   REMARKS
GRAND ISLAND   CLEAR     34  30  85 NW12      30.32R WCI  25
AURORA         CLEAR     32  30  94 NW9       30.31R WCI  24
HASTINGS       CLEAR     30  27  88 NW8       30.31S WCI  22
HEBRON         CLEAR     34  30  85 NW7       30.31R WCI  27
HOLDREGE       CLEAR     33  30  92 N8        30.32S WCI  25
KEARNEY        CLEAR     31  28  89 NW7       30.33R WCI  24
YORK             N/A     32  32 100 N6        30.30R WCI  26
$$

NEZ011>018-030>034-042>045-190800-
NORTHEAST NEBRASKA

CITY           SKY/WX    TMP DP  RH WIND       PRES   REMARKS
NORFOLK        CLEAR     31  30  96 NW5       30.30R WCI  26
ALBION         PTCLDY    32  30  94 NW5       30.31R WCI  27
BLAIR          CLEAR     33  31  92 N9        30.28R WCI  25
COLUMBUS       CLEAR     33  31  92 NW6       30.31R WCI  28
FREMONT        CLOUDY    35  32  88 N5        30.30R WCI  31
TEKAMAH        CLOUDY    31  29  92 NW6       30.30R WCI  25
WAYNE          CLEAR     32  32  99 NW8       30.30R WCI  25
$$

NEZ050>053-065>068-078-088>093-190800-
SOUTHEAST NEBRASKA

CITY           SKY/WX    TMP DP  RH WIND       PRES   REMARKS
LINCOLN        CLEAR     33  29  85 N7        30.31R WCI  27
OMAHA EPPLEY   CLEAR     32  29  88 N8        30.29R WCI  25
BEATRICE       MOCLDY    34  31  88 NW10      30.28R WCI  26
FALLS CITY     CLOUDY    39  33  79 NW12      30.25R WCI  32
NEBRASKA CITY  CLOUDY    36  32  86 N10       30.28R WCI  28
PLATTSMOUTH    MOCLDY    33  30  86 NW5       30.28R WCI  29
$$

NEZ044-045-051>053-067-190800-
OMAHA AREA

CITY           SKY/WX    TMP DP  RH WIND       PRES   REMARKS
OMAHA EPPLEY   CLEAR     32  29  88 N8        30.29R WCI  25
BLAIR          CLEAR     33  31  92 N9        30.28R WCI  25
FREMONT        CLOUDY    35  32  88 N5        30.30R WCI  31
MILLARD        CLEAR     36  32  85 N3        30.30R
OFFUTT AFB     CLEAR     34  29  81 N9        30.28R WCI  27
PLATTSMOUTH    MOCLDY    33  30  86 NW5       30.28R WCI  29
WAHOO          FAIR      33  30  90 NW7       30.31R WCI  26
$$




USA.gov is the U.S. government's official web portal to all federal, state and local government web resources and services.